Location: Munkebjergskolens Observatorium
(55.3864°N, 10.3987°E)
Time: 04:34:48
(UTC+02:00)

QB50P2 - Pass Details

Date: 09 April 2023
Orbit: 581 x 596 km, 98.0° (Epoch: 31 May)

Event Time Altitude Azimuth Distance (km) Brightness Sun altitude
Rises 04:25:56 0° 9° (N) 2,834 ? -16.4°
Reaches altitude 10° 04:28:18 10° 358° (N) 1,926 ? -16.1°
Maximum altitude 04:31:53 29° 299° (WNW) 1,104 ? -15.7°
Enters shadow 04:33:19 23° 265° (W) 1,267 ? -15.6°
